Location: Unspecified
(0.0000°N, 0.0000°E)
Time: 12:55:58
(UTC+00:00)

N. Korean satellite - Pass Details

Date: 14 June 2021
Orbit: 450 x 500 km, 97.2° (Epoch: 18 June)

Event Time Altitude Azimuth Distance (km) Brightness Sun altitude
Rises 04:17:55 0° 36° (NE) 2,546 11.2 -23.4°
Reaches altitude 10° 04:20:24 10° 54° (NE) 1,677 10.4 -22.8°
Maximum altitude 04:23:03 19° 101° (ESE) 1,217 9.2 -22.2°
Drops below altitude 10° 04:25:43 10° 148° (SSE) 1,696 9.4 -21.6°
Enters shadow 04:27:14 - 161° (SSE) 2,215 9.8 -21.3°
